Regional Weather Roundup
Issued by NWS Newport/Morehead, NC

Current Version | Previous Version | Graphics & Text | Print | Product List | Glossary Off
Versions: 1 2 3 4 5 6 7 8 9 10 11 12 13 14 15 16 17 18 19 20 21 22 23 24 25 26 27 28 29 30 31 32 33 34 35 36 37 38 39 40 41 42 43 44 45 46 47 48 49 50

000
ASUS42 KMHX 282113
RWRMHX
WEATHER ROUNDUP FOR EASTERN NORTH CAROLINA
NATIONAL WEATHER SERVICE NEWPORT/MOREHEAD CITY NC
500 PM EDT THU APR 28 2016

NOTE: "FAIR" INDICATES FEW OR NO CLOUDS BELOW 12,000 FEET
WITH NO SIGNIFICANT WEATHER AND/OR OBSTRUCTIONS TO VISIBILITY

NCZ015>017-031-032-045>047-102-103-282200-
NORTH COAST

CITY           SKY/WX    TMP DP  RH WIND       PRES   REMARKS
EDENTON        SUNNY     71  65  82 E10       29.88S
ELIZABETH CITY SUNNY     71  64  78 E6        29.88F
KITTY HAWK     CLOUDY    70  60  72 E7        29.87F
MANTEO         NOT AVBL

$$

NCZ045>047-081-094-103-104-282200-
CENTRAL COAST

CITY           SKY/WX    TMP DP  RH WIND       PRES   REMARKS
FRISCO         MOSUNNY   72  67  84 SW15G22   29.88F
SWANQUARTER    NOT AVBL

$$

NCZ095-097-098-100-101-282200-
SOUTHERN COAST

CITY           SKY/WX    TMP DP  RH WIND       PRES   REMARKS
BEAUFORT       SUNNY     73  67  81 SW18      29.89S
CEDAR ISLAND   NOT AVBL
JACKSONVILLE   MOSUNNY   82  64  54 S12       29.86F
PINEY ISLAND   NOT AVBL
WILMINGTON     SUNNY     84  63  49 SW12      29.88S


$$

NCZ011>013-027>030-043-044-078>080-089-090>093-098-282200-
COASTAL PLAIN

CITY           SKY/WX    TMP DP  RH WIND       PRES   REMARKS
AHOSKIE        SUNNY     75  67  77 NE5       29.86F
CLINTON        SUNNY     85  66  52 SW7       29.85S
ELIZABETHTOWN  MOSUNNY   86  62  45 SW10G16   29.86F
GOLDSBORO      MOSUNNY   86  63  45 W14       29.82F
GREENVILLE     MOSUNNY   86  66  51 SW13      29.85F
HAVELOCK       MOSUNNY   82  69  64 S15       29.87F
KENANSVILLE    MOSUNNY   86  58  39 SW6       29.85F
KINSTON        MOSUNNY   86  61  42 SW10G20   29.84F
NEW BERN       PTSUNNY   86  64  47 SW9G18    29.86S
RICHLANDS      SUNNY     86  64  47 SW9       29.86S
ROCKY MOUNT    SUNNY     84  66  54 SW8       29.83F
WASHINGTON     MOSUNNY   84  66  54 SW7       29.83S
WHITEVILLE     MOSUNNY   84  65  52 S9        29.87F

$$

AMZ130-135-150-152-154-156-158-170-250-252-270-ANZ085-086-088-633-658-670-282200-
MARINE OBSERVATIONS

STATION/POSITION TIME  TEMP    WIND        PRES    WAVE   SWELL
                       AIR SEA DIR/SP/G            HT/PER HT/PER
                 (UTC) (F)     (DEG/KT/KT) (MB)    (FT/S) (FT/S)
CHESAPEAKE LIGHT 2100   54      40/ 12/ 12 1013.7
64 E VA BEACH    2050   58 56  140/  6/  6 1011.9    3/ 5   3/ 5
DUCK             2000   61 67   70/  6/  7 1011.7
2 E DUCK         2011      59                N/A     2/ 5
OREGON INLET     2000   70 65  200/ 13/ 15 1011.5
13E OREGON INLT  2100      61                N/A     3/ 5   2/10
HATTERAS CG      2000   73 69  200/ 12/ 16 1012.1
DIAMOND BUOY     2050   74 72  210/ 17/ 19 1012.1    4/ 6   2/11
CAPE LOOKOUT     2100   71     210/ 15/ 19 1011.9
BEAUFORT LAB     2000   71 68  210/ 14/ 17 1011.4
30 SE NEW RVR IN 2025      67                N/A     4/ 5
27 SE WRIGHTSVLE 2008   71 69  220/ 14/ 17 1016.0
5 SE WRIGHTSVLE  2008   70 67  210/ 16/ 19 1013.1
225 S CAPE HAT   2050   72 72  190/  8/ 10 1016.2    2/11   2/11
41 SE CHARLESTON 2050   73 72  190/  8/ 10 1013.4    3/ 5   2/ 5

$$




USA.gov is the U.S. government's official web portal to all federal, state and local government web resources and services.